Вернуться в каталог

CZ-6A DEB

АктивенSSO
NORAD 56608·DEBRIS·🇨🇳 China

Запущен Nov 11, 2022 с Taiyuan Satellite Launch Center

Loading…

Ближайшие Пролёты (ближайшие 24 часа)

TLE

СвежийSource: Space-Track

Эпоха: Sep 14, 2026, 00:14 UTC

1 56608U 22151AEG 26257.00990830  .00001043  00000-0  54310-3 0  9991
2 56608  98.8901 280.5250 0033704  68.6200 291.8565 14.16529965175145

Отслеживайте CZ-6A DEB в реальном времени с AllMySat

Download on the App Store